Location: Montreal
(45.5000°N, 73.5833°W)
Time: 14:57:52
(UTC-05:00)

Envisat - Pass Details

Date: 11 October 2017
Orbit: 764 x 766 km, 98.2° (Epoch: 15 December)

Event Time Altitude Azimuth Distance (km) Brightness Sun altitude
Exits shadow 20:30:48 67° 134° (SE) 833 2.9 -24.4°
Maximum altitude 20:31:26 78° 75° (ENE) 789 2.8 -24.5°
Drops below altitude 10° 20:36:32 10° 349° (N) 2,315 5.8 -25.3°
Sets 20:38:51 0° 348° (NNW) 3,246 6.6 -25.7°
